User: anonymous   Login
Location: Caltech
(34.1382°N, 118.1253°W)
Time: 01:22:35
(UTC-08:00)
Language:

GPS 2-04 Rocket1 - Orbit

View from above orbital plane
View from above orbital plane
View from above satellite
View from above satellite

Ground track
Ground track

The orbit data is extracted from the following two-line orbital elements,

1 20303U 89085B   17057.85436931  .00003044  00000-0  10960-3 0  9997
2 20303  35.6319   8.3108 0109431 276.6649  82.1632 15.22798465483719
Epoch (UTC): 26 February 2017 20:30:17
Eccentricity: 0.0109431
inclination: 35.6319°
perigee height: 422 km
apogee height: 572 km
right ascension of ascending node: 8.3108°
argument of perigee: 276.6649°
revolutions per day: 15.22798465
mean anomaly at epoch: 82.1632°
orbit number at epoch: 48371

The dashed part of the orbit path shows where the satellite is in the earth's shadow,  

DLR